Date,TemperatureHighF,TemperatureAvgF,TemperatureLowF,DewpointHighF,DewpointAvgF,DewpointLowF,HumidityHigh,HumidityAvg,HumidityLow,PressureMaxIn,PressureMinIn,WindSpeedMaxMPH,WindSpeedAvgMPH,GustSpeedMaxMPH,PrecipitationSumIn
2013-1-1,28.0,23.3,14.0,-99.9,-99.9,-99.9,0,0,100,0.00,40.00,0,-999,0,0.01
2013-1-2,41.0,31.9,24.0,-99.9,-99.9,-99.9,0,0,100,0.00,40.00,0,-999,0,0.00
2013-1-3,45.0,33.6,29.0,-99.9,-99.9,-99.9,0,0,100,0.00,40.00,0,-999,0,0.00
2013-1-4,45.0,33.7,29.0,-99.9,-99.9,-99.9,0,0,100,0.00,40.00,0,-999,0,0.00
2013-1-5,40.0,32.3,29.0,-99.9,-99.9,-99.9,0,0,100,0.00,40.00,0,-999,0,0.00
2013-1-6,27.0,23.9,22.0,-99.9,-99.9,-99.9,0,0,100,0.00,40.00,0,-999,0,0.01
2013-1-7,41.0,30.8,20.0,-99.9,-99.9,-99.9,0,0,100,0.00,40.00,0,-999,0,0.01
2013-1-8,50.0,37.5,27.0,-99.9,-99.9,-99.9,0,0,100,0.00,40.00,0,-999,0,0.00
2013-1-9,42.0,34.1,15.0,-99.9,-99.9,-99.9,0,0,100,0.00,40.00,0,-999,0,0.00
2013-1-10,16.0,11.4,5.0,-99.9,-99.9,-99.9,0,0,100,0.00,40.00,0,-999,0,0.01
2013-1-11,14.0,10.3,7.0,-99.9,-99.9,-99.9,0,0,100,0.00,40.00,0,-999,0,0.00
2013-1-12,23.0,8.9,-1.0,-99.9,-99.9,-99.9,0,0,100,0.00,40.00,0,-999,0,0.01
2013-1-13,23.0,10.5,2.0,-99.9,-99.9,-99.9,0,0,100,0.00,40.00,0,-999,0,0.01
2013-1-14,31.0,22.9,15.0,-99.9,-99.9,-99.9,0,0,100,0.00,40.00,0,-999,0,0.01
2013-1-15,43.0,36.3,31.0,-99.9,-99.9,-99.9,0,0,100,0.00,40.00,0,-999,0,0.01
2013-1-16,44.0,35.8,28.0,-99.9,-99.9,-99.9,0,0,100,0.00,40.00,0,-999,0,0.00
2013-1-17,49.0,36.0,30.0,-99.9,-99.9,-99.9,0,0,100,0.00,40.00,0,-999,0,0.00
2013-1-18,49.0,34.7,30.0,-99.9,-99.9,-99.9,0,0,100,0.00,40.00,0,-999,0,0.00
2013-1-19,48.0,34.8,30.0,-99.9,-99.9,-99.9,0,0,100,0.00,40.00,0,-999,0,0.00
2013-1-20,46.0,38.1,31.0,-99.9,-99.9,-99.9,0,0,100,0.00,40.00,0,-999,0,0.00
2013-1-21,52.0,42.1,35.0,-99.9,-99.9,-99.9,0,0,100,0.00,40.00,0,-999,0,0.00
2013-1-22,51.0,41.3,35.0,-99.9,-99.9,-99.9,0,0,100,0.00,40.00,0,-999,0,0.00
2013-1-23,43.0,36.0,32.0,-99.9,-99.9,-99.9,0,0,100,0.00,40.00,0,-999,0,0.00
2013-1-24,40.0,34.9,33.0,-99.9,-99.9,-99.9,0,0,100,0.00,40.00,0,-999,0,0.01
2013-1-25,38.0,34.9,33.0,-99.9,-99.9,-99.9,0,0,100,0.00,40.00,0,-999,0,0.01
2013-1-26,40.0,31.5,25.0,-99.9,-99.9,-99.9,0,0,100,0.00,40.00,0,-999,0,0.00
2013-1-27,24.0,17.4,10.0,-99.9,-99.9,-99.9,0,0,100,0.00,40.00,0,-999,0,0.01
2013-1-28,23.0,17.5,7.0,-99.9,-99.9,-99.9,0,0,100,0.00,40.00,0,-999,0,0.01
2013-1-29,40.0,31.5,24.0,-99.9,-99.9,-99.9,0,0,100,0.00,40.00,0,-999,0,0.01
2013-1-30,48.0,36.6,29.0,-99.9,-99.9,-99.9,0,0,100,0.00,40.00,0,-999,0,0.00
2013-1-31,49.0,37.2,30.0,-99.9,-99.9,-99.9,0,0,100,0.00,40.00,0,-999,0,0.00
2013-2-1,48.0,36.8,32.0,-99.9,-99.9,-99.9,0,0,100,0.00,40.00,0,-999,0,0.00
2013-2-2,44.0,35.6,31.0,-99.9,-99.9,-99.9,0,0,100,0.00,40.00,0,-999,0,0.00
2013-2-3,43.0,33.6,28.0,-99.9,-99.9,-99.9,0,0,100,0.00,40.00,0,-999,0,0.00
2013-2-4,49.0,36.8,28.0,-99.9,-99.9,-99.9,0,0,100,0.00,40.00,0,-999,0,0.00
2013-2-5,42.0,33.7,26.0,-99.9,-99.9,-99.9,0,0,100,0.00,40.00,0,-999,0,0.00
2013-2-6,42.0,29.8,20.0,-99.9,-99.9,-99.9,0,0,100,0.00,40.00,0,-999,0,0.00
2013-2-7,29.0,23.5,13.0,-99.9,-99.9,-99.9,0,0,100,0.00,40.00,0,-999,0,0.00
2013-2-8,21.0,13.6,8.0,-99.9,-99.9,-99.9,0,0,100,0.00,40.00,0,-999,0,0.00
2013-2-9,29.0,19.2,8.0,-99.9,-99.9,-99.9,0,0,100,0.00,40.00,0,-999,0,0.01
2013-2-10,27.0,21.1,18.0,-99.9,-99.9,-99.9,0,0,100,0.00,40.00,0,-999,0,0.01
2013-2-11,30.0,21.6,15.0,-99.9,-99.9,-99.9,0,0,100,0.00,40.00,0,-999,0,0.00
2013-2-12,40.0,28.7,20.0,-99.9,-99.9,-99.9,0,0,100,0.00,40.00,0,-999,0,0.00
2013-2-13,39.0,29.1,24.0,-99.9,-99.9,-99.9,0,0,100,0.00,40.00,0,-999,0,0.00
2013-2-14,41.0,32.3,27.0,-99.9,-99.9,-99.9,0,0,100,0.00,40.00,0,-999,0,0.00
2013-2-15,49.0,37.2,30.0,-99.9,-99.9,-99.9,0,0,100,0.00,40.00,0,-999,0,0.00
2013-2-16,44.0,35.3,28.0,-99.9,-99.9,-99.9,0,0,100,0.00,40.00,0,-999,0,0.00
2013-2-17,41.0,31.7,25.0,-99.9,-99.9,-99.9,0,0,100,0.00,40.00,0,-999,0,0.00
2013-2-18,41.0,30.6,26.0,-99.9,-99.9,-99.9,0,0,100,0.00,40.00,0,-999,0,0.00
2013-2-19,26.0,19.2,12.0,-99.9,-99.9,-99.9,0,0,100,0.00,40.00,0,-999,0,0.00
2013-2-20,28.0,18.6,14.0,-99.9,-99.9,-99.9,0,0,100,0.00,40.00,0,-999,0,0.01
2013-2-21,27.0,18.4,13.0,-99.9,-99.9,-99.9,0,0,100,0.00,40.00,0,-999,0,0.01
2013-2-22,38.0,29.5,19.0,-99.9,-99.9,-99.9,0,0,100,0.00,40.00,0,-999,0,0.01
2013-2-23,30.0,25.7,22.0,-99.9,-99.9,-99.9,0,0,100,0.00,40.00,0,-999,0,0.00
2013-2-25,28.0,24.5,22.0,-99.9,-99.9,-99.9,0,0,100,0.00,40.00,0,-999,0,0.00
2013-2-26,36.0,27.0,16.0,-99.9,-99.9,-99.9,0,0,100,0.00,40.00,0,-999,0,0.00
2013-2-27,42.0,28.1,22.0,-99.9,-99.9,-99.9,0,0,100,0.00,40.00,0,-999,0,0.00
2013-2-28,45.0,32.3,26.0,-99.9,-99.9,-99.9,0,0,100,0.00,40.00,0,-999,0,0.00
2013-3-1,49.0,37.6,29.0,-99.9,-99.9,-99.9,0,0,100,0.00,40.00,0,-999,0,0.00
2013-3-2,46.0,38.6,35.0,-99.9,-99.9,-99.9,0,0,100,0.00,40.00,0,-999,0,0.00
2013-3-3,34.0,31.0,26.0,-99.9,-99.9,-99.9,0,0,100,0.00,40.00,0,-999,0,0.01
2013-3-4,45.0,31.5,21.0,-99.9,-99.9,-99.9,0,0,100,0.00,40.00,0,-999,0,0.01
2013-3-5,36.0,30.9,28.0,-99.9,-99.9,-99.9,0,0,100,0.00,40.00,0,-999,0,0.00
2013-3-6,26.0,21.8,17.0,-99.9,-99.9,-99.9,0,0,100,0.00,40.00,0,-999,0,0.02
2013-3-7,29.0,22.5,19.0,-99.9,-99.9,-99.9,0,0,100,0.00,40.00,0,-999,0,0.01
2013-3-8,29.0,22.8,18.0,-99.9,-99.9,-99.9,0,0,100,0.00,40.00,0,-999,0,0.01
2013-3-9,33.0,25.6,20.0,-99.9,-99.9,-99.9,0,0,100,0.00,40.00,0,-999,0,0.01
2013-3-10,47.0,31.2,20.0,-99.9,-99.9,-99.9,0,0,100,0.00,40.00,0,-999,0,0.00
2013-3-11,51.0,36.7,30.0,-99.9,-99.9,-99.9,0,0,100,0.00,40.00,0,-999,0,0.01
2013-3-12,55.0,41.1,33.0,-99.9,-99.9,-99.9,0,0,100,0.00,40.00,0,-999,0,0.00
2013-3-13,56.0,45.7,39.0,-99.9,-99.9,-99.9,0,0,100,0.00,40.00,0,-999,0,0.00
2013-3-14,54.0,43.2,38.0,-99.9,-99.9,-99.9,0,0,100,0.00,40.00,0,-999,0,0.00
2013-3-15,51.0,40.8,36.0,-99.9,-99.9,-99.9,0,0,100,0.00,40.00,0,-999,0,0.00
2013-3-16,47.0,39.0,34.0,-99.9,-99.9,-99.9,0,0,100,0.00,40.00,0,-999,0,0.00
2013-3-27,44.0,37.9,33.0,-99.9,-99.9,-99.9,0,0,100,0.00,40.00,0,-999,0,0.00
2013-3-28,43.0,34.7,31.0,-99.9,-99.9,-99.9,0,0,100,0.00,40.00,0,-999,0,0.00
2013-3-29,50.0,38.0,30.0,-99.9,-99.9,-99.9,0,0,100,0.00,40.00,0,-999,0,0.00
2013-3-30,48.0,40.5,36.0,-99.9,-99.9,-99.9,0,0,100,0.00,40.00,0,-999,0,0.00
2013-3-31,38.0,33.2,27.0,-99.9,-99.9,-99.9,0,0,100,0.00,40.00,0,-999,0,0.00
2013-4-1,36.0,31.0,27.0,-99.9,-99.9,-99.9,0,0,100,0.00,40.00,0,-999,0,0.01
2013-4-2,45.0,33.2,26.0,-99.9,-99.9,-99.9,0,0,100,0.00,40.00,0,-999,0,0.00
2013-4-3,53.0,41.3,33.0,-99.9,-99.9,-99.9,0,0,100,0.00,40.00,0,-999,0,0.00
2013-4-4,41.0,36.8,32.0,-99.9,-99.9,-99.9,0,0,100,0.00,40.00,0,-999,0,0.01
2013-4-5,44.0,34.5,29.0,-99.9,-99.9,-99.9,0,0,100,0.00,40.00,0,-999,0,0.02
2013-4-6,41.0,33.7,30.0,-99.9,-99.9,-99.9,0,0,100,0.00,40.00,0,-999,0,0.00
2013-4-7,44.0,34.5,26.0,-99.9,-99.9,-99.9,0,0,100,0.00,40.00,0,-999,0,0.00
2013-4-8,25.0,23.8,22.0,-99.9,-99.9,-99.9,0,0,100,0.00,40.00,0,-999,0,0.02
2013-4-9,36.0,33.4,32.0,-99.9,-99.9,-99.9,0,0,100,0.00,40.00,0,-999,0,0.00
2013-4-10,51.0,40.8,33.0,-99.9,-99.9,-99.9,0,0,100,0.00,40.00,0,-999,0,0.00
2013-4-11,46.0,40.3,36.0,-99.9,-99.9,-99.9,0,0,100,0.00,40.00,0,-999,0,0.00
2013-4-12,52.0,37.0,30.0,-99.9,-99.9,-99.9,0,0,100,0.00,40.00,0,-999,0,0.00
2013-4-13,48.0,41.1,37.0,-99.9,-99.9,-99.9,0,0,100,0.00,40.00,0,-999,0,0.00
2013-4-14,44.0,35.9,31.0,-99.9,-99.9,-99.9,0,0,100,0.00,40.00,0,-999,0,0.00
2013-4-15,33.0,26.3,20.0,-99.9,-99.9,-99.9,0,0,100,0.00,40.00,0,-999,0,0.01
2013-4-16,24.0,19.0,17.0,-99.9,-99.9,-99.9,0,0,100,0.00,40.00,0,-999,0,0.02
2013-4-17,30.0,22.0,13.0,-99.9,-99.9,-99.9,0,0,100,0.00,40.00,0,-999,0,0.01
2013-4-18,45.0,28.5,19.0,-99.9,-99.9,-99.9,0,0,100,0.00,40.00,0,-999,0,0.00
2013-4-19,47.0,38.2,30.0,-99.9,-99.9,-99.9,0,0,100,0.00,40.00,0,-999,0,0.00
2013-4-20,52.0,39.8,28.0,-99.9,-99.9,-99.9,0,0,100,0.00,40.00,0,-999,0,0.00
2013-4-21,57.0,44.5,36.0,-99.9,-99.9,-99.9,0,0,100,0.00,40.00,0,-999,0,0.00
2013-4-22,54.0,42.8,35.0,-99.9,-99.9,-99.9,0,0,100,0.00,40.00,0,-999,0,0.00
2013-4-23,55.0,37.5,25.0,-99.9,-99.9,-99.9,0,0,100,0.00,40.00,0,-999,0,0.01
2013-4-24,46.0,41.4,36.0,-99.9,-99.9,-99.9,0,0,100,0.00,40.00,0,-999,0,0.00
2013-4-25,53.0,41.4,33.0,-99.9,-99.9,-99.9,0,0,100,0.00,40.00,0,-999,0,0.00
2013-4-26,55.0,46.8,37.0,-99.9,-99.9,-99.9,0,0,100,0.00,40.00,0,-999,0,0.00
2013-4-27,58.0,46.9,41.0,-99.9,-99.9,-99.9,0,0,100,0.00,40.00,0,-999,0,0.00
2013-4-28,60.0,49.7,40.0,-99.9,-99.9,-99.9,0,0,100,0.00,40.00,0,-999,0,0.00
2013-4-29,58.0,48.1,41.0,-99.9,-99.9,-99.9,0,0,100,0.00,40.00,0,-999,0,0.00
2013-4-30,55.0,43.0,36.0,-99.9,-99.9,-99.9,0,0,100,0.00,40.00,0,-999,0,0.00
2013-5-1,46.0,38.1,29.0,-99.9,-99.9,-99.9,0,0,100,0.00,40.00,0,-999,0,0.01
2013-5-2,60.0,45.0,31.0,-99.9,-99.9,-99.9,0,0,100,0.00,40.00,0,-999,0,0.00
2013-5-3,58.0,50.4,41.0,-99.9,-99.9,-99.9,0,0,100,0.00,40.00,0,-999,0,0.00
2013-5-4,47.0,42.0,38.0,-99.9,-99.9,-99.9,0,0,100,0.00,40.00,0,-999,0,0.01
2013-5-5,43.0,38.3,34.0,-99.9,-99.9,-99.9,0,0,100,0.00,40.00,0,-999,0,0.01
2013-5-6,38.0,34.5,32.0,-99.9,-99.9,-99.9,0,0,100,0.00,40.00,0,-999,0,0.05
2013-5-7,38.0,33.7,31.0,-99.9,-99.9,-99.9,0,0,100,0.00,40.00,0,-999,0,0.01
2013-5-8,46.0,39.9,34.0,-99.9,-99.9,-99.9,0,0,100,0.00,40.00,0,-999,0,0.01
2013-5-9,51.0,43.6,36.0,-99.9,-99.9,-99.9,0,0,100,0.00,40.00,0,-999,0,0.00
2013-5-10,58.0,48.3,38.0,-99.9,-99.9,-99.9,0,0,100,0.00,40.00,0,-999,0,0.00
2013-5-11,60.0,51.1,44.0,-99.9,-99.9,-99.9,0,0,100,0.00,40.00,0,-999,0,0.00
2013-5-12,63.0,51.9,46.0,-99.9,-99.9,-99.9,0,0,100,0.00,40.00,0,-999,0,0.00
2013-5-13,62.0,51.6,45.0,-99.9,-99.9,-99.9,0,0,100,0.00,40.00,0,-999,0,0.00
2013-5-14,58.0,48.6,44.0,-99.9,-99.9,-99.9,0,0,100,0.00,40.00,0,-999,0,0.01
2013-5-15,56.0,46.0,39.0,-99.9,-99.9,-99.9,0,0,100,0.00,40.00,0,-999,0,0.00
2013-5-16,41.0,37.3,35.0,-99.9,-99.9,-99.9,0,0,100,0.00,40.00,0,-999,0,0.01
2013-5-17,46.0,36.7,32.0,-99.9,-99.9,-99.9,0,0,100,0.00,40.00,0,-999,0,0.00
2013-5-18,50.0,37.8,31.0,-99.9,-99.9,-99.9,0,0,100,0.00,40.00,0,-999,0,0.00
2013-5-19,53.0,41.2,32.0,-99.9,-99.9,-99.9,0,0,100,0.00,40.00,0,-999,0,0.00
2013-5-20,59.0,46.8,33.0,-99.9,-99.9,-99.9,0,0,100,0.00,40.00,0,-999,0,0.01
2013-5-21,54.0,46.9,39.0,-99.9,-99.9,-99.9,0,0,100,0.00,40.00,0,-999,0,0.01
2013-5-22,46.0,38.3,29.0,-99.9,-99.9,-99.9,0,0,100,0.00,40.00,0,-999,0,0.01
2013-5-23,43.0,33.4,24.0,-99.9,-99.9,-99.9,0,0,100,0.00,40.00,0,-999,0,0.01
2013-5-24,53.0,40.4,31.0,-99.9,-99.9,-99.9,0,0,100,0.00,40.00,0,-999,0,0.00
2013-5-25,51.0,40.2,32.0,-99.9,-99.9,-99.9,0,0,100,0.00,40.00,0,-999,0,0.00
2013-5-26,51.0,39.8,33.0,-99.9,-99.9,-99.9,0,0,100,0.00,40.00,0,-999,0,0.00
2013-5-27,47.0,39.7,34.0,-99.9,-99.9,-99.9,0,0,100,0.00,40.00,0,-999,0,0.01
2013-5-28,47.0,40.1,35.0,-99.9,-99.9,-99.9,0,0,100,0.00,40.00,0,-999,0,0.01
2013-5-29,51.0,42.1,36.0,-99.9,-99.9,-99.9,0,0,100,0.00,40.00,0,-999,0,0.00
2013-5-30,58.0,45.4,37.0,-99.9,-99.9,-99.9,0,0,100,0.00,40.00,0,-999,0,0.00
2013-5-31,62.0,48.4,37.0,-99.9,-99.9,-99.9,0,0,100,0.00,40.00,0,-999,0,0.00
2013-6-1,68.0,55.1,43.0,-99.9,-99.9,-99.9,0,0,100,0.00,40.00,0,-999,0,0.00
2013-6-2,65.0,55.9,47.0,-99.9,-99.9,-99.9,0,0,100,0.00,40.00,0,-999,0,0.00
2013-6-3,66.0,55.0,46.0,-99.9,-99.9,-99.9,0,0,100,0.00,40.00,0,-999,0,0.00
2013-6-4,69.0,57.4,48.0,-99.9,-99.9,-99.9,0,0,100,0.00,40.00,0,-999,0,0.00
2013-6-5,69.0,60.0,49.0,-99.9,-99.9,-99.9,0,0,100,0.00,40.00,0,-999,0,0.00
2013-6-6,69.0,60.6,52.0,-99.9,-99.9,-99.9,0,0,100,0.00,40.00,0,-999,0,0.00
2013-6-7,74.0,61.6,52.0,-99.9,-99.9,-99.9,0,0,100,0.00,40.00,0,-999,0,0.00
2013-6-8,75.0,63.5,55.0,-99.9,-99.9,-99.9,0,0,100,0.00,40.00,0,-999,0,0.00
2013-6-9,74.0,58.4,47.0,-99.9,-99.9,-99.9,0,0,100,0.00,40.00,0,-999,0,0.05
2013-6-10,58.0,51.2,46.0,-99.9,-99.9,-99.9,0,0,100,0.00,40.00,0,-999,0,0.02
2013-6-11,58.0,49.2,45.0,-99.9,-99.9,-99.9,0,0,100,0.00,40.00,0,-999,0,0.01
2013-6-27,71.0,65.3,57.0,-99.9,-99.9,-99.9,0,0,100,0.00,40.00,0,-999,0,0.00
2013-6-28,75.0,63.2,56.0,-99.9,-99.9,-99.9,0,0,100,0.00,40.00,0,-999,0,0.01
2013-6-29,74.0,64.9,54.0,-99.9,-99.9,-99.9,0,0,100,0.00,40.00,0,-999,0,0.00
2013-6-30,77.0,67.6,58.0,-99.9,-99.9,-99.9,0,0,100,0.00,40.00,0,-999,0,0.00
2013-7-1,76.0,64.1,52.0,-99.9,-99.9,-99.9,0,0,100,0.00,40.00,0,-999,0,0.03
2013-7-2,75.0,64.7,58.0,-99.9,-99.9,-99.9,0,0,100,0.00,40.00,0,-999,0,0.84
2013-7-3,72.0,62.4,54.0,-99.9,-99.9,-99.9,0,0,100,0.00,40.00,0,-999,0,0.01
2013-7-4,73.0,63.9,55.0,-99.9,-99.9,-99.9,0,0,100,0.00,40.00,0,-999,0,0.01
2013-7-5,71.0,59.7,52.0,-99.9,-99.9,-99.9,0,0,100,0.00,40.00,0,-999,0,0.01
2013-7-6,69.0,57.0,53.0,-99.9,-99.9,-99.9,0,0,100,0.00,40.00,0,-999,0,0.01
2013-7-7,69.0,58.5,51.0,-99.9,-99.9,-99.9,0,0,100,0.00,40.00,0,-999,0,0.00
2013-7-8,69.0,57.7,52.0,-99.9,-99.9,-99.9,0,0,100,0.00,40.00,0,-999,0,0.00
2013-7-9,68.0,55.7,50.0,-99.9,-99.9,-99.9,0,0,100,0.00,40.00,0,-999,0,0.01
2013-7-10,68.0,58.9,50.0,-99.9,-99.9,-99.9,0,0,100,0.00,40.00,0,-999,0,0.00
2013-7-11,64.0,55.5,49.0,-99.9,-99.9,-99.9,0,0,100,0.00,40.00,0,-999,0,0.01
2013-7-12,66.0,54.2,45.0,-99.9,-99.9,-99.9,0,0,100,0.00,40.00,0,-999,0,0.01
2013-7-13,67.0,57.4,47.0,-99.9,-99.9,-99.9,0,0,100,0.00,40.00,0,-999,0,0.00
2013-7-14,71.0,57.5,49.0,-99.9,-99.9,-99.9,0,0,100,0.00,40.00,0,-999,0,0.00
2013-7-15,68.0,58.3,52.0,-99.9,-99.9,-99.9,0,0,100,0.00,40.00,0,-999,0,0.02
2013-7-16,66.0,56.1,49.0,-99.9,-99.9,-99.9,0,0,100,0.00,40.00,0,-999,0,0.00
2013-7-17,69.0,57.8,47.0,-99.9,-99.9,-99.9,0,0,100,0.00,40.00,0,-999,0,0.00
2013-7-18,74.0,66.7,55.0,-99.9,-99.9,-99.9,0,0,100,0.00,40.00,0,-999,0,0.00
2013-7-19,75.0,67.3,56.0,-99.9,-99.9,-99.9,0,0,100,0.00,40.00,0,-999,0,0.00
2013-7-20,80.0,67.8,60.0,-99.9,-99.9,-99.9,0,0,100,0.00,40.00,0,-999,0,0.00
2013-7-21,78.0,67.4,60.0,-99.9,-99.9,-99.9,0,0,100,0.00,40.00,0,-999,0,0.00
2013-7-22,74.0,63.6,52.0,-99.9,-99.9,-99.9,0,0,100,0.00,40.00,0,-999,0,0.01
2013-7-23,63.0,56.7,50.0,-99.9,-99.9,-99.9,0,0,100,0.00,40.00,0,-999,0,0.03
2013-7-24,67.0,59.0,51.0,-99.9,-99.9,-99.9,0,0,100,0.00,40.00,0,-999,0,0.01
2013-7-25,71.0,58.8,52.0,-99.9,-99.9,-99.9,0,0,100,0.00,40.00,0,-999,0,0.02
2013-7-26,69.0,59.6,53.0,-99.9,-99.9,-99.9,0,0,100,0.00,40.00,0,-999,0,0.02
2013-7-27,71.0,59.4,51.0,-99.9,-99.9,-99.9,0,0,100,0.00,40.00,0,-999,0,0.01
2013-7-28,68.0,58.3,50.0,-99.9,-99.9,-99.9,0,0,100,0.00,40.00,0,-999,0,0.01
2013-7-29,65.0,56.3,48.0,-99.9,-99.9,-99.9,0,0,100,0.00,40.00,0,-999,0,0.00
2013-7-30,67.0,56.2,45.0,-99.9,-99.9,-99.9,0,0,100,0.00,40.00,0,-999,0,0.00
2013-7-31,65.0,56.8,48.0,-99.9,-99.9,-99.9,0,0,100,0.00,40.00,0,-999,0,0.00
2013-8-1,60.0,49.6,43.0,-99.9,-99.9,-99.9,0,0,100,0.00,40.00,0,-999,0,0.01
2013-8-2,64.0,51.5,42.0,-99.9,-99.9,-99.9,0,0,100,0.00,40.00,0,-999,0,0.00
2013-8-3,66.0,55.6,45.0,-99.9,-99.9,-99.9,0,0,100,0.00,40.00,0,-999,0,0.00
2013-8-4,69.0,59.2,47.0,-99.9,-99.9,-99.9,0,0,100,0.00,40.00,0,-999,0,0.00
2013-8-5,70.0,58.3,51.0,-99.9,-99.9,-99.9,0,0,100,0.00,40.00,0,-999,0,0.00
2013-8-6,70.0,57.6,51.0,-99.9,-99.9,-99.9,0,0,100,0.00,40.00,0,-999,0,0.00
2013-8-7,66.0,53.9,46.0,-99.9,-99.9,-99.9,0,0,100,0.00,40.00,0,-999,0,0.01
2013-8-8,60.0,50.4,43.0,-99.9,-99.9,-99.9,0,0,100,0.00,40.00,0,-999,0,0.01
2013-8-9,62.0,50.6,44.0,-99.9,-99.9,-99.9,0,0,100,0.00,40.00,0,-999,0,0.00
2013-8-10,62.0,50.4,41.0,-99.9,-99.9,-99.9,0,0,100,0.00,40.00,0,-999,0,0.00
2013-8-11,63.0,51.6,45.0,-99.9,-99.9,-99.9,0,0,100,0.00,40.00,0,-999,0,0.00
2013-8-12,67.0,56.0,47.0,-99.9,-99.9,-99.9,0,0,100,0.00,40.00,0,-999,0,0.00
2013-8-13,68.0,57.0,45.0,-99.9,-99.9,-99.9,0,0,100,0.00,40.00,0,-999,0,0.00
2013-8-14,72.0,58.1,51.0,-99.9,-99.9,-99.9,0,0,100,0.00,40.00,0,-999,0,0.00
2013-8-15,67.0,57.3,51.0,-99.9,-99.9,-99.9,0,0,100,0.00,40.00,0,-999,0,0.00
2013-8-16,68.0,56.0,49.0,-99.9,-99.9,-99.9,0,0,100,0.00,40.00,0,-999,0,0.00
2013-8-25,58.0,51.1,47.0,-99.9,-99.9,-99.9,0,0,100,0.00,40.00,0,-999,0,0.00
2013-8-26,60.0,51.8,46.0,-99.9,-99.9,-99.9,0,0,100,0.00,40.00,0,-999,0,0.00
2013-8-27,62.0,52.7,48.0,-99.9,-99.9,-99.9,0,0,100,0.00,40.00,0,-999,0,0.00
2013-8-28,61.0,56.3,53.0,-99.9,-99.9,-99.9,0,0,100,0.00,40.00,0,-999,0,0.00
2013-8-29,66.0,55.7,48.0,-99.9,-99.9,-99.9,0,0,100,0.00,40.00,0,-999,0,0.00
2013-8-30,70.0,61.0,52.0,-99.9,-99.9,-99.9,0,0,100,0.00,40.00,0,-999,0,0.00
2013-8-31,68.0,57.6,52.0,-99.9,-99.9,-99.9,0,0,100,0.00,40.00,0,-999,0,0.00
2013-9-1,67.0,56.5,51.0,-99.9,-99.9,-99.9,0,0,100,0.00,40.00,0,-999,0,0.01
2013-9-2,61.0,54.9,52.0,-99.9,-99.9,-99.9,0,0,100,0.00,40.00,0,-999,0,0.01
2013-9-3,64.0,54.3,51.0,-99.9,-99.9,-99.9,0,0,100,0.00,40.00,0,-999,0,0.00
2013-9-4,64.0,55.3,50.0,-99.9,-99.9,-99.9,0,0,100,0.00,40.00,0,-999,0,0.00
2013-9-5,63.0,54.1,48.0,-99.9,-99.9,-99.9,0,0,100,0.00,40.00,0,-999,0,0.00
2013-9-6,68.0,56.5,47.0,-99.9,-99.9,-99.9,0,0,100,0.00,40.00,0,-999,0,0.00
2013-9-7,66.0,55.9,49.0,-99.9,-99.9,-99.9,0,0,100,0.00,40.00,0,-999,0,0.00
2013-9-8,67.0,58.0,50.0,-99.9,-99.9,-99.9,0,0,100,0.00,40.00,0,-999,0,0.00
2013-9-9,67.0,58.9,50.0,-99.9,-99.9,-99.9,0,0,100,0.00,40.00,0,-999,0,0.00
2013-9-10,65.0,56.6,47.0,-99.9,-99.9,-99.9,0,0,100,0.00,40.00,0,-999,0,0.01
2013-9-12,65.0,56.1,50.0,-99.9,-99.9,-99.9,0,0,100,0.00,40.00,0,-999,0,0.00
2013-9-13,65.0,55.4,46.0,-99.9,-99.9,-99.9,0,0,100,0.00,40.00,0,-999,0,0.01
2013-9-14,64.0,56.1,49.0,-99.9,-99.9,-99.9,0,0,100,0.00,40.00,0,-999,0,0.00
2013-9-15,65.0,56.2,49.0,-99.9,-99.9,-99.9,0,0,100,0.00,40.00,0,-999,0,0.01
2013-9-16,65.0,54.0,48.0,-99.9,-99.9,-99.9,0,0,100,0.00,40.00,0,-999,0,0.00
2013-9-17,53.0,46.1,39.0,-99.9,-99.9,-99.9,0,0,100,0.00,40.00,0,-999,0,0.01
2013-9-18,43.0,38.0,33.0,-99.9,-99.9,-99.9,0,0,100,0.00,40.00,0,-999,0,0.00
2013-9-19,63.0,49.3,40.0,-99.9,-99.9,-99.9,0,0,100,0.00,40.00,0,-999,0,0.00
2013-9-20,59.0,51.6,44.0,-99.9,-99.9,-99.9,0,0,100,0.00,40.00,0,-999,0,0.01
2013-9-21,43.0,38.0,29.0,-99.9,-99.9,-99.9,0,0,100,0.00,40.00,0,-999,0,0.01
2013-9-22,47.0,38.5,29.0,-99.9,-99.9,-99.9,0,0,100,0.00,40.00,0,-999,0,0.01
2013-9-23,60.0,47.9,36.0,-99.9,-99.9,-99.9,0,0,100,0.00,40.00,0,-999,0,0.00
2013-9-24,53.0,47.1,38.0,-99.9,-99.9,-99.9,0,0,100,0.00,40.00,0,-999,0,0.01
2013-9-25,38.0,33.7,25.0,-99.9,-99.9,-99.9,0,0,100,0.00,40.00,0,-999,0,0.01
2013-9-26,35.0,29.3,24.0,-99.9,-99.9,-99.9,0,0,100,0.00,40.00,0,-999,0,0.01
2013-9-27,49.0,36.2,25.0,-99.9,-99.9,-99.9,0,0,100,0.00,40.00,0,-999,0,0.00
2013-10-2,51.0,44.2,39.0,-99.9,-99.9,-99.9,0,0,100,0.00,40.00,0,-999,0,0.01
2013-10-3,38.0,35.8,29.0,-99.9,-99.9,-99.9,0,0,100,0.00,40.00,0,-999,0,0.01
2013-10-4,41.0,36.6,27.0,-99.9,-99.9,-99.9,0,0,100,0.00,40.00,0,-999,0,0.01
2013-10-5,63.0,50.1,33.0,-99.9,-99.9,-99.9,0,0,100,0.00,40.00,0,-999,0,0.00
2013-10-6,62.0,53.2,47.0,-99.9,-99.9,-99.9,0,0,100,0.00,40.00,0,-999,0,0.00
2013-10-7,58.0,47.3,40.0,-99.9,-99.9,-99.9,0,0,100,0.00,40.00,0,-999,0,0.01
2013-10-8,52.0,40.2,35.0,-99.9,-99.9,-99.9,0,0,100,0.00,40.00,0,-999,0,0.01
2013-10-9,34.0,31.1,29.0,-99.9,-99.9,-99.9,0,0,100,0.00,40.00,0,-999,0,0.01
2013-10-10,45.0,37.0,29.0,-99.9,-99.9,-99.9,0,0,100,0.00,40.00,0,-999,0,0.00
2013-10-11,49.0,39.1,31.0,-99.9,-99.9,-99.9,0,0,100,0.00,40.00,0,-999,0,0.01
2013-10-12,49.0,36.0,32.0,-99.9,-99.9,-99.9,0,0,100,0.00,40.00,0,-999,0,0.00
2013-10-13,42.0,33.7,28.0,-99.9,-99.9,-99.9,0,0,100,0.00,40.00,0,-999,0,0.01
2013-10-14,49.0,33.4,26.0,-99.9,-99.9,-99.9,0,0,100,0.00,40.00,0,-999,0,0.00
2013-10-15,41.0,33.9,26.0,-99.9,-99.9,-99.9,0,0,100,0.00,40.00,0,-999,0,0.00
2013-10-16,52.0,42.0,35.0,-99.9,-99.9,-99.9,0,0,100,0.00,40.00,0,-999,0,0.00
2013-10-21,57.0,46.7,42.0,-99.9,-99.9,-99.9,0,0,100,0.00,40.00,0,-999,0,0.00
2013-10-22,58.0,47.0,41.0,-99.9,-99.9,-99.9,0,0,100,0.00,40.00,0,-999,0,0.00
2013-10-23,51.0,44.0,40.0,-99.9,-99.9,-99.9,0,0,100,0.00,40.00,0,-999,0,0.00
2013-10-24,51.0,49.5,48.0,-99.9,-99.9,-99.9,0,0,100,0.00,40.00,0,-999,0,0.00
2013-10-25,47.0,41.7,39.0,-99.9,-99.9,-99.9,0,0,100,0.00,40.00,0,-999,0,0.00
2013-10-26,54.0,45.7,41.0,-99.9,-99.9,-99.9,0,0,100,0.00,40.00,0,-999,0,0.00
2013-10-27,40.0,36.5,33.0,-99.9,-99.9,-99.9,0,0,100,0.00,40.00,0,-999,0,0.00
2013-11-12,50.0,43.6,39.0,-99.9,-99.9,-99.9,0,0,100,0.00,40.00,0,-999,0,0.00
2013-11-13,47.0,47.0,47.0,-99.9,-99.9,-99.9,0,0,100,0.00,40.00,0,-999,0,0.00
2013-11-14,48.0,41.7,35.0,-99.9,-99.9,-99.9,0,0,100,0.00,40.00,0,-999,0,0.00
2013-11-15,36.0,35.5,35.0,-99.9,-99.9,-99.9,0,0,100,0.00,40.00,0,-999,0,0.00
2013-11-16,32.0,31.0,30.0,-99.9,-99.9,-99.9,0,0,100,0.00,40.00,0,-999,0,0.00
2013-11-17,48.0,48.0,48.0,-99.9,-99.9,-99.9,0,0,100,0.00,40.00,0,-999,0,0.00
2013-11-18,34.0,33.5,33.0,-99.9,-99.9,-99.9,0,0,100,0.00,40.00,0,-999,0,0.00
2013-11-19,38.0,34.1,31.0,-99.9,-99.9,-99.9,0,0,100,0.00,40.00,0,-999,0,0.00
2013-11-20,33.0,31.4,29.0,-99.9,-99.9,-99.9,0,0,100,0.00,40.00,0,-999,0,0.01
2013-11-21,24.0,19.8,15.0,-99.9,-99.9,-99.9,0,0,100,0.00,40.00,0,-999,0,0.01
2013-11-22,17.0,17.0,17.0,-99.9,-99.9,-99.9,0,0,100,0.00,40.00,0,-999,0,0.00
2013-11-23,33.0,27.6,23.0,-99.9,-99.9,-99.9,0,0,100,0.00,40.00,0,-999,0,0.00
2013-11-24,39.0,32.6,26.0,-99.9,-99.9,-99.9,0,0,100,0.00,40.00,0,-999,0,0.00
2013-11-25,38.0,35.3,33.0,-99.9,-99.9,-99.9,0,0,100,0.00,40.00,0,-999,0,0.00
2013-11-26,48.0,41.2,36.0,-99.9,-99.9,-99.9,0,0,100,0.00,40.00,0,-999,0,0.00
2013-11-27,43.0,36.0,31.0,-99.9,-99.9,-99.9,0,0,100,0.00,40.00,0,-999,0,0.00
2013-11-28,41.0,31.9,28.0,-99.9,-99.9,-99.9,0,0,100,0.00,40.00,0,-999,0,0.00
2013-11-29,40.0,30.2,26.0,-99.9,-99.9,-99.9,0,0,100,0.00,40.00,0,-999,0,0.00
2013-11-30,39.0,34.2,30.0,-99.9,-99.9,-99.9,0,0,100,0.00,40.00,0,-999,0,0.00
2013-12-1,51.0,41.0,31.0,-99.9,-99.9,-99.9,0,0,100,0.00,40.00,0,-999,0,0.00
2013-12-2,42.0,42.0,42.0,-99.9,-99.9,-99.9,0,0,100,0.00,40.00,0,-999,0,0.00
2013-12-3,26.0,14.0,1.0,-99.9,-99.9,-99.9,0,0,100,0.00,40.00,0,-999,0,0.01
2013-12-4,18.0,11.7,3.0,-99.9,-99.9,-99.9,0,0,100,0.00,40.00,0,-999,0,0.00
2013-12-11,40.0,32.0,22.0,-99.9,-99.9,-99.9,0,0,100,0.00,40.00,0,-999,0,0.00
2013-12-13,38.0,38.0,38.0,-99.9,-99.9,-99.9,0,0,100,0.00,40.00,0,-999,0,0.00
2013-12-14,47.0,39.0,31.0,-99.9,-99.9,-99.9,0,0,100,0.00,40.00,0,-999,0,0.00
2013-12-16,54.0,46.0,38.0,-99.9,-99.9,-99.9,0,0,100,0.00,40.00,0,-999,0,0.00
2013-12-17,41.0,41.0,41.0,-99.9,-99.9,-99.9,0,0,100,0.00,40.00,0,-999,0,0.00
2013-12-18,42.0,40.5,39.0,-99.9,-99.9,-99.9,0,0,100,0.00,40.00,0,-999,0,0.00
2013-12-19,27.0,20.8,12.0,-99.9,-99.9,-99.9,0,0,100,0.00,40.00,0,-999,0,0.01
2013-12-22,41.0,36.2,31.0,-99.9,-99.9,-99.9,0,0,100,0.00,40.00,0,-999,0,0.00
2013-12-23,49.0,49.0,49.0,-99.9,-99.9,-99.9,0,0,100,0.00,40.00,0,-999,0,0.00
2013-12-24,48.0,36.8,32.0,-99.9,-99.9,-99.9,0,0,100,0.00,40.00,0,-999,0,0.00
2013-12-25,45.0,40.0,35.0,-99.9,-99.9,-99.9,0,0,100,0.00,40.00,0,-999,0,0.00
2013-12-26,49.0,40.4,35.0,-99.9,-99.9,-99.9,0,0,100,0.00,40.00,0,-999,0,0.00
2013-12-28,34.0,34.0,34.0,-99.9,-99.9,-99.9,0,0,100,0.00,40.00,0,-999,0,0.00
2013-12-29,27.0,26.5,26.0,-99.9,-99.9,-99.9,0,0,100,0.00,40.00,0,-999,0,0.00
2013-12-30,40.0,40.0,40.0,-99.9,-99.9,-99.9,0,0,100,0.00,40.00,0,-999,0,0.00
2013-12-31,42.0,37.2,33.0,-99.9,-99.9,-99.9,0,0,100,0.00,40.00,0,-999,0,0.00
2014-1-1,46.0,34.7,29.0,-99.9,-99.9,-99.9,0,0,100,0.00,40.00,0,-999,0,0.00
2014-1-2,49.0,39.8,35.0,-99.9,-99.9,-99.9,0,0,100,0.00,40.00,0,-999,0,0.00